Palacios, TX

2:12 PM CST on January 19, 2018 (GMT -0600)
Palacios Municipal

Weather History for KPSX - December, 2014

Change the Weather History Date:

Friday, December 5, 2014

  Actual Average Record
Temperature  
Mean Temperature 72 °F -  
Max Temperature 77 °F 69 °F 81 °F (1977)
Min Temperature 66 °F 50 °F 27 °F (1945)
Cooling Degree Days 6    
Growing Degree Days 22 (Base 50)    
Moisture  
Dew Point 68 °F    
Average Humidity 96    
Maximum Humidity 100    
Minimum Humidity 79    
Precipitation  
Precipitation 0.00 in - - ()
Sea Level Pressure  
Sea Level Pressure 30.10 in    
Wind  
Wind Speed 8 mph (SSE)    
Max Wind Speed 14 mph    
Max Gust Speed -    
Visibility 3 miles    
Events Fog    
Averages and records for this station are not official NWS values.
T = Trace of Precipitation, MM = Missing Value Source: NWS Daily Summary

Daily Weather History Graph

Daily Weather History Graph

Search for Another Location

Airport or City:

Trip Planner

Search our weather history database for the weather conditions in past years. The results will help you decide how hot, cold, wet, or windy it might be!

Date:

Astronomy

Dec. 05, 2014 Rise Set
Actual Time 7:03 AM CST 5:27 PM CST
Civil Twilight 6:37 AM CST 5:53 PM CST
Nautical Twilight 6:08 AM CST 6:22 PM CST
Astronomical Twilight 5:39 AM CST 6:51 PM CST
Moon 5:10 PM CST (12/5) 6:04 AM CST (12/5)
Length of Visible Light 11h 15m
Length of Day
10h 24m
Waxing Gibbous, 99% of the Moon is Illuminated
Dec 5
Waxing Gibbous
Dec 6
Full
Dec 14
Last Quarter
Dec 21
New
Dec 28
First Quarter

Hourly Weather History & Observations

Time (CST) Temp. Dew Point Humidity Pressure Visibility Wind Dir Wind Speed Gust Speed Precip Events Conditions
12:05 AM 69.1 °F 68.0 °F 96% 30.07 in 6.0 mi SE 9.2 mph - N/A   Overcast
12:20 AM 69.1 °F 68.0 °F 96% 30.07 in 3.0 mi SE 9.2 mph - N/A   Overcast
12:27 AM 69.1 °F 68.0 °F 96% 30.06 in 1.8 mi SE 9.2 mph - N/A   Overcast
12:39 AM 69.1 °F 68.0 °F 96% 30.06 in 0.5 mi SE 10.4 mph - N/A Fog Fog
12:53 AM 69.1 °F 68.0 °F 96% 30.06 in 0.8 mi SE 9.2 mph - N/A   Mist
1:18 AM 69.1 °F 68.0 °F 96% 30.05 in 1.2 mi SE 10.4 mph - N/A   Overcast
1:40 AM 69.1 °F 68.0 °F 96% 30.05 in 0.8 mi SE 9.2 mph - N/A   Mist
1:53 AM 69.1 °F 68.0 °F 96% 30.05 in 0.8 mi SE 9.2 mph - N/A   Mist
2:00 AM 69.1 °F 68.0 °F 96% 30.05 in 1.5 mi SE 8.1 mph - N/A   Overcast
2:43 AM 68.0 °F 68.0 °F 100% 30.04 in 2.0 mi SE 9.2 mph - N/A   Overcast
2:53 AM 68.0 °F 68.0 °F 100% 30.04 in 3.0 mi SE 9.2 mph - N/A   Overcast
3:04 AM 68.0 °F 68.0 °F 100% 30.04 in 2.0 mi SSE 9.2 mph - N/A   Overcast
3:18 AM 68.0 °F 68.0 °F 100% 30.04 in 1.0 mi SSE 8.1 mph - N/A   Overcast
3:37 AM 68.0 °F 68.0 °F 100% 30.04 in 0.8 mi SE 8.1 mph - N/A   Overcast
3:53 AM 68.0 °F 68.0 °F 100% 30.04 in 1.2 mi SE 6.9 mph - N/A   Overcast
4:10 AM 68.0 °F 68.0 °F 100% 30.04 in 1.5 mi SE 6.9 mph - N/A   Overcast
4:16 AM 68.0 °F 68.0 °F 100% 30.04 in 3.0 mi SE 6.9 mph - N/A   Overcast
4:29 AM 68.0 °F 68.0 °F 100% 30.05 in 3.0 mi SE 8.1 mph - N/A   Overcast
5:04 AM 69.1 °F 69.1 °F 100% 30.05 in 0.5 mi SSE 6.9 mph - N/A Fog Fog
5:53 AM 66.9 °F 66.9 °F 100% 30.06 in 0.5 mi SSE 8.1 mph - N/A Fog Fog
6:36 AM 66.9 °F 66.9 °F 100% 30.08 in 1.0 mi SSE 6.9 mph - N/A   Mist
6:53 AM 66.9 °F 66.9 °F 100% 30.08 in 0.5 mi SSE 6.9 mph - N/A Fog Fog
7:45 AM 68.0 °F 68.0 °F 100% 30.09 in 0.8 mi SSE 8.1 mph - N/A   Mist
7:53 AM 68.0 °F 68.0 °F 100% 30.09 in 0.8 mi SSE 6.9 mph - N/A   Overcast
8:01 AM 69.1 °F 69.1 °F 100% 30.10 in 2.0 mi SSE 6.9 mph - N/A   Overcast
8:07 AM 69.8 °F 69.8 °F 100% 30.10 in 6.0 mi SSE 5.8 mph - N/A   Overcast
8:28 AM 70.0 °F 70.0 °F 100% 30.11 in 7.0 mi SSE 4.6 mph - N/A   Mostly Cloudy
8:42 AM 70.0 °F 70.0 °F 100% 30.12 in 8.0 mi South 5.8 mph - N/A   Mostly Cloudy
8:53 AM 71.6 °F 69.8 °F 94% 30.12 in 8.0 mi SSE 5.8 mph - N/A   Scattered Clouds
9:53 AM 73.9 °F 71.1 °F 91% 30.13 in 10.0 mi SSE 11.5 mph - N/A   Clear
10:53 AM 75.9 °F 70.0 °F 82% 30.13 in 10.0 mi South 12.7 mph - N/A   Clear
11:53 AM 75.0 °F 70.0 °F 84% 30.12 in 10.0 mi South 10.4 mph - N/A   Scattered Clouds
12:53 PM 77.0 °F 71.1 °F 82% 30.08 in 10.0 mi South 13.8 mph - N/A   Mostly Cloudy
1:53 PM 77.0 °F 70.0 °F 79% 30.08 in 10.0 mi South 12.7 mph - N/A   Mostly Cloudy
2:53 PM 75.9 °F 70.0 °F 82% 30.08 in 10.0 mi South 10.4 mph - N/A   Overcast
3:53 PM 75.0 °F 70.0 °F 84% 30.07 in 10.0 mi South 11.5 mph - N/A   Mostly Cloudy
4:53 PM 73.0 °F 70.0 °F 90% 30.09 in 10.0 mi SSE 6.9 mph - N/A   Clear
5:53 PM 70.0 °F 69.1 °F 97% 30.10 in 7.0 mi SE 6.9 mph - N/A   Partly Cloudy
6:34 PM 70.0 °F 69.1 °F 97% 30.12 in 5.0 mi SSE 5.8 mph - N/A   Mostly Cloudy
6:49 PM 69.8 °F 69.8 °F 100% 30.12 in 3.0 mi SE 5.8 mph - N/A   Overcast
6:53 PM 69.1 °F 68.0 °F 96% 30.12 in 2.5 mi SE 5.8 mph - N/A   Overcast
6:55 PM 69.1 °F 68.0 °F 96% 30.12 in 1.8 mi SE 4.6 mph - N/A   Overcast
7:07 PM 69.1 °F 68.0 °F 96% 30.12 in 0.5 mi SE 6.9 mph - N/A Fog Fog
7:53 PM 68.0 °F 68.0 °F 100% 30.13 in 0.5 mi SE 8.1 mph - N/A Fog Fog
8:24 PM 68.0 °F 68.0 °F 100% 30.14 in 1.0 mi SSE 6.9 mph - N/A   Mist
8:45 PM 68.0 °F 68.0 °F 100% 30.15 in 0.8 mi SSE 6.9 mph - N/A   Mist
8:53 PM 68.0 °F 68.0 °F 100% 30.14 in 0.8 mi SSE 6.9 mph - N/A   Mist
9:08 PM 68.0 °F 68.0 °F 100% 30.15 in 1.0 mi SSE 8.1 mph - N/A   Mist
9:16 PM 68.0 °F 68.0 °F 100% 30.15 in 0.8 mi SSE 8.1 mph - N/A   Mist
9:53 PM 68.0 °F 66.9 °F 96% 30.16 in 1.2 mi SSE 5.8 mph - N/A   Overcast
10:16 PM 66.9 °F 66.9 °F 100% 30.16 in 1.0 mi SSE 6.9 mph - N/A   Mist
10:27 PM 66.9 °F 66.9 °F 100% 30.16 in 0.5 mi SSE 5.8 mph - N/A Fog Fog
10:44 PM 68.0 °F 66.9 °F 96% 30.16 in 0.5 mi SE 6.9 mph - N/A Fog Fog
10:53 PM 68.0 °F 68.0 °F 100% 30.16 in 0.5 mi SSE 6.9 mph - N/A Fog Fog
11:15 PM 68.0 °F 68.0 °F 100% 30.16 in 1.2 mi SSE 6.9 mph - N/A   Overcast
11:39 PM 69.1 °F 68.0 °F 96% 30.16 in 2.5 mi SSE 8.1 mph - N/A   Overcast
11:50 PM 69.8 °F 68.0 °F 94% 30.16 in 1.0 mi South 6.9 mph - N/A   Overcast
11:53 PM 69.1 °F 68.0 °F 96% 30.16 in 1.0 mi South 6.9 mph - N/A   Overcast